Change the Weather History Date:

Tuesday, February 7, 2012

  Actual Average Record
Temperature  
Mean Temperature 9 °F -  
Max Temperature 26 °F 30 °F 49 °F (1987)
Min Temperature -8 °F 4 °F -31 °F (1989)
Degree Days  
Heating Degree Days 56 48  
Month to date heating degree days 365 336  
Since 1 July heating degree days 6429 6733  
Cooling Degree Days 0 0  
Month to date cooling degree days 0 0  
Year to date cooling degree days 0 0  
Moisture  
Dew Point -1 °F    
Average Humidity 66    
Maximum Humidity 100    
Minimum Humidity 32    
Precipitation  
Precipitation T in 0.02 in 0.25 in (2004)
Month to date precipitation 0.25 0.16  
Year to date precipitation 1.32 0.78  
Sea Level Pressure  
Sea Level Pressure 30.19 in    
Wind  
Wind Speed 3 mph (ENE)    
Max Wind Speed 14 mph    
Max Gust Speed 18 mph    
Visibility 7 miles    
Events Snow    
T = Trace of Precipitation, MM = Missing Value Source: NWS Daily Summary

Daily Weather History Graph

Daily Weather History Graph

Search for Another Location

Airport or City:

Trip Planner

Search our weather history database for the weather conditions in past years. The results will help you decide how hot, cold, wet, or windy it might be!

Date:

Astronomy

Feb. 07, 2012 Rise Set
Actual Time 7:06 AM MST 5:32 PM MST
Civil Twilight 6:38 AM MST 6:00 PM MST
Nautical Twilight 6:07 AM MST 6:32 PM MST
Astronomical Twilight 5:35 AM MST 7:03 PM MST
Moon 5:46 PM MST (2/7) 6:37 AM MST (2/7)
Length of Visible Light 11h 21m
Length of Day
10h 25m
Full, 100% of the Moon is Illuminated
Feb 7
Full
Feb 7
Full
Feb 14
Last Quarter
Feb 21
New
Feb 29
First Quarter

Hourly Weather History & Observations

Time (MST) Temp. Windchill Dew Point Humidity Pressure Visibility Wind Dir Wind Speed Gust Speed Precip Events Conditions
12:07 AM 6.8 °F - 3.2 °F 85% 30.09 in 1.8 mi Calm Calm - 0.00 in Snow Light Snow
12:25 AM 6.8 °F - 3.2 °F 85% 30.09 in 1.2 mi Calm Calm - 0.00 in Snow Light Snow
12:28 AM 6.8 °F - 3.2 °F 85% 30.09 in 1.2 mi Calm Calm - 0.00 in Snow Light Snow
12:44 AM 6.8 °F - 3.2 °F 85% 30.08 in 2.5 mi Calm Calm - 0.00 in Snow Light Snow
12:53 AM 6.1 °F - 3.0 °F 87% 30.16 in 3.0 mi Calm Calm - 0.00 in   Overcast
1:09 AM 5.0 °F -2.1 °F 1.4 °F 85% 30.09 in 2.5 mi ENE 3.5 mph - 0.00 in Snow Light Snow
1:18 AM 3.2 °F -6.2 °F -0.4 °F 85% 30.09 in 5.0 mi East 4.6 mph - 0.00 in   Overcast
1:31 AM 1.4 °F -9.9 °F -0.4 °F 92% 30.10 in 4.0 mi East 5.8 mph - 0.00 in Snow Light Snow
1:45 AM 1.4 °F -9.9 °F -2.2 °F 85% 30.10 in 2.5 mi East 5.8 mph - 0.00 in Snow Light Snow
1:50 AM 1.4 °F -9.9 °F -2.2 °F 85% 30.10 in 3.0 mi East 5.8 mph - 0.00 in Snow Light Snow
1:53 AM 1.9 °F -7.6 °F -2.0 °F 83% 30.18 in 3.0 mi East 4.6 mph - 0.00 in   Overcast
2:06 AM -0.4 °F - -2.2 °F 92% 30.10 in 6.0 mi Calm Calm - N/A   Overcast
2:50 AM 5.0 °F - 1.9 °F 87% 30.17 in 1.8 mi Calm Calm - 0.00 in Snow Light Snow
3:02 AM 5.0 °F - 1.4 °F 85% 30.11 in 2.0 mi Calm Calm - 0.00 in Snow Light Snow
3:28 AM -0.4 °F - -5.8 °F 78% 30.10 in 3.0 mi Calm Calm - 0.00 in   Overcast
3:53 AM 3.0 °F - -0.0 °F 87% 30.20 in 10.0 mi Calm Calm - 0.00 in   Scattered Clouds
4:53 AM -2.9 °F -15.0 °F -8.0 °F 79% 30.25 in 10.0 mi East 5.8 mph - N/A   Clear
5:53 AM -6.0 °F -20.1 °F -9.0 °F 87% 30.27 in 10.0 mi East 6.9 mph - N/A   Clear
6:53 AM -5.1 °F -17.6 °F -9.9 °F 80% 30.27 in 10.0 mi ENE 5.8 mph - N/A   Clear
7:53 AM -4.0 °F -19.0 °F -8.0 °F 83% 30.29 in 10.0 mi ENE 8.1 mph - N/A   Clear
8:53 AM 1.9 °F - 1.0 °F 96% 30.26 in 10.0 mi Calm Calm - N/A   Clear
9:53 AM 10.9 °F - 3.9 °F 73% 30.24 in 10.0 mi Calm Calm - N/A   Clear
10:53 AM 17.1 °F - 3.9 °F 56% 30.24 in 10.0 mi Calm Calm - N/A   Clear
11:53 AM 21.0 °F 16.2 °F 3.9 °F 48% 30.18 in 10.0 mi WNW 3.5 mph - N/A   Clear
12:53 PM 21.9 °F 14.5 °F 3.9 °F 46% 30.16 in 10.0 mi WNW 5.8 mph - N/A   Clear
1:53 PM 25.0 °F - 3.9 °F 41% 30.15 in 10.0 mi Calm Calm - N/A   Clear
2:53 PM 24.1 °F 16.0 °F 1.0 °F 37% 30.14 in 10.0 mi West 6.9 mph 18.4 mph N/A   Clear
3:53 PM 25.0 °F 16.3 °F -2.0 °F 31% 30.17 in 10.0 mi NNW 8.1 mph - N/A   Clear
4:53 PM 23.0 °F 17.0 °F -0.9 °F 35% 30.22 in 10.0 mi NNW 4.6 mph - N/A   Clear
5:53 PM 15.1 °F 6.4 °F 5.0 °F 64% 30.31 in 10.0 mi South 5.8 mph - N/A   Clear
6:53 PM 10.9 °F 4.7 °F -0.0 °F 61% 30.36 in 10.0 mi ENE 3.5 mph - N/A   Clear
7:53 PM 3.9 °F - -2.9 °F 73% 30.41 in 10.0 mi Calm Calm - N/A   Clear
8:53 PM 6.1 °F -4.3 °F -0.9 °F 73% 30.36 in 10.0 mi ENE 5.8 mph - N/A   Clear
9:53 PM -0.0 °F - -5.1 °F 79% 30.33 in 10.0 mi Calm Calm - N/A   Clear
10:53 PM -0.0 °F - -4.0 °F 83% 30.29 in 10.0 mi Calm Calm - N/A   Clear
11:53 PM 1.0 °F -10.3 °F -6.0 °F 72% 30.26 in 10.0 mi NE 5.8 mph - N/A   Clear